Preview of NWS' New Version of Forecast
This preview is not operational and should not be used for support decisions.

Regional Weather Roundup (RWR)

Issued by National Weather Service (NWS)

                            
000
ASUS42 KTBW 181517
RWRFL 
FLORIDA REGIONAL WEATHER ROUNDUP
NATIONAL WEATHER SERVICE TAMPA BAY RUSKIN FL
1100 AM EDT THU JUL 18 2019

NOTE: "FAIR" INDICATES FEW OR NO CLOUDS BELOW 12,000 FEET WITH NO
SIGNIFICANT WEATHER AND/OR OBSTRUCTIONS TO VISIBILITY.

FLZ001>010-012>015-112-114-115-181600-
PANHANDLE FLORIDA
  
CITY           SKY/WX    TMP DP  RH WIND       PRES   REMARKS
PENSACOLA      PTSUNNY   88  77  69 W7        30.09F HX 100           
PENSACOLA NAS  PTSUNNY   87  78  74 N5        30.08F HX 100           
MILTON NAS     FAIR      88  76  67 NW6       30.09F HX  99           
CRESTVIEW      FAIR      87  75  67 N5        30.10F HX  96           
DUKE FIELD     FAIR      87  74  65 CALM      30.08F HX  95           
VALPARAISO     FAIR      87  73  61 W3        30.08F                  
MARY ESTHER    MOSUNNY   88  76  67 CALM      30.07F HX  98           
TRI COUNTY     FAIR      89  78  70 VRB3      30.09F HX 103           
PANAMA CITY    FAIR      88  73  61 VRB5      30.08F HX  95           
TYNDALL AFB    MOSUNNY   85  77  75 W5        30.09S HX  96           
APALACHICOLA   PTSUNNY   87  75  67 CALM      30.10R HX  96           

STATION/POSITION SKY/WX   TEMP    WIND        PRES    WAVE   SWELL
                          AIR SEA DIR/SP/G            HT/PER HT/PER
                          (F)     (DEG/KT/KT) (MB)    (FT/S) (FT/S)
30.1N   87.6W              85 86  300/  2/  4 1018.9F   1/ 6
29.2N   88.2W              86 86   CALM  /  2 1019.2F   1/ 5   2/ 5
28.8N   86.0W              85 87  100/  4/  6 1019.4R   1/ 7
PANAMA CITY BEAC           84 86  260/  6/  8 1019.5F
TOWER C                    84        CALM     1019.8R
28.5N   84.5W              85     170/  6/ 10 1020.1R   1/ 5   2/ 5

$$
FLZ011-016>038-118-127-128-134-139-239-181600-
NORTH FLORIDA
  
CITY           SKY/WX    TMP DP  RH WIND       PRES   REMARKS
MARIANNA       FAIR      86  77  74 W6        30.08F HX  97           
TALLAHASSEE    PTSUNNY   88  75  65 W5        30.09F HX  97           
PERRY          FAIR      88  77  70 W6        30.11S HX 101           
LIVE OAK       MOSUNNY   86  77  74 VRB6      30.10F HX  97           
CROSS CITY     PTSUNNY   87  79  76 SW6       30.10F HX 101           
LAKE CITY      PTSUNNY   81  77  89 SW5       30.12S                  
GAINESVILLE    FAIR      88  72  58 VRB5      30.14S                  
WILLISTON      FAIR      84  74  71 W3        30.11F                  
PALATKA        FAIR      84  73  70 CALM      30.11F                  
MAYPORT NAS    CLOUDY    86  71  60 S7        30.11S                  
JACKSONVILLE   PTSUNNY   87  75  67 W8        30.10S HX  96           
JAX NAS        PTSUNNY   86  69  56 S6        30.11F                  
JAX CECIL      MOSUNNY   90  72  55 CALM      30.11S HX  96           
FERNANDINA BEA FAIR      87  76  70 SW9       30.10S HX  97           
ST AUGUSTINE   FAIR      86  75  69 VRB3      30.11F HX  95           
PALM COAST     SUNNY     84  75  74 CALM      30.10F                  

STATION/POSITION SKY/WX   TEMP    WIND        PRES    WAVE   SWELL
                          AIR SEA DIR/SP/G            HT/PER HT/PER
                          (F)     (DEG/KT/KT) (MB)    (FT/S) (FT/S)
SHELL POINT      NOT AVBL
KEATON BEACH               85     290/  5/  6 1019.6R
CEDAR KEY                  84     160/  5/  6 1019.7F
FERNANDINA                 90 85  190/  5/  7 1020.0S
30.7N   81.3W                 83                N/A     1/10
MAYPORT                    84 80  200/  5/  6 1019.9S
31.4N   80.9W              82 84  230/ 12/ 14 1018.6R   2/10   2/10
ST AUGUSTINE               81 79   90/  4/  4 1019.7F

$$
FLZ040-043>046-052-053-057-058-063-144-181600-
INTERIOR CENTRAL FLORIDA
  
CITY           SKY/WX    TMP DP  RH WIND       PRES   REMARKS
OCALA          FAIR      84  71  65 CALM      30.12F                  
LEESBURG       FAIR      85  74  69 S6        30.12S                  
SANFORD        FAIR      86  75  69 VRB3      30.10F HX  95           
ORLANDO EXEC   FAIR      87  73  62 VRB5      30.10F                  
ORLANDO INTL   PTSUNNY   87  72  60 S5        30.10F                  
KISSIMMEE      FAIR      86  75  69 S8        30.12S HX  95           
WINTER HAVEN   FAIR      86  74  67 S8        30.12S                  
LAKELAND       SUNNY     84  73  70 SE7       30.12S                  
BARTOW         SUNNY     84  77  79 SE6       30.11S                  
SEBRING        FAIR      85  76  72 CALM      30.12S HX  95           
OKEECHOBEE     FAIR      86  73  66 N3        30.11S                  

$$
FLZ041-047-054-059-064-141-147-181600-
EAST CENTRAL FLORIDA
  
CITY           SKY/WX    TMP DP  RH WIND       PRES   REMARKS
ORMOND BEACH   SUNNY     86  75  70 SW6       30.10F HX  95           
DAYTONA BEACH  FAIR      87  76  69 S5        30.10F HX  97           
DELAND         FAIR      86  73  66 SW6       30.10S                  
NEW SMYRNA BEA SUNNY     86  73  66 S5        30.11F                  
JFK SPACE CTR  SUNNY     83  66  56 S7        30.12R                  
TITUSVILLE     CLOUDY    86  75  70 S7        30.13R HX  95           
CAPE CANAVERAL SUNNY     81  52  36 S3        30.12R                  
PATRICK AFB    FAIR      83  78  87 CALM      30.13R                  
MELBOURNE      FAIR      86  75  69 CALM      30.12R HX  95           
VERO BEACH     FAIR      85  74  69 CALM      30.13R                  
FT PIERCE      FAIR      83  75  77 CALM      30.13R                  
STUART         TSTM      77  73  88 CALM      30.13S                  

STATION/POSITION SKY/WX   TEMP    WIND        PRES    WAVE   SWELL
                          AIR SEA DIR/SP/G            HT/PER HT/PER
                          (F)     (DEG/KT/KT) (MB)    (FT/S) (FT/S)
28.5N   80.2W              81 85  300/  2/  4 1020.1R   1/ 8   2/ 8
28.9N   78.5W              85 85  170/ 10/ 12   N/A     2/10   2/10
TRIDENT PIER               81 83  140/  2/  4 1021.2S
28.4N   80.5W                 82                N/A     1/11
27.5N   80.2W                 82                N/A     1/ 8

$$
FLZ050-056-061-142-242-148-248-149-249-151-251-155-255-
160-260-181600-
WEST CENTRAL FLORIDA
  
CITY           SKY/WX    TMP DP  RH WIND       PRES   REMARKS
CRYSTAL RIVER  FAIR      86  70  58 CALM      30.11S                  
INVERNESS      FAIR      84  77  79 CALM      30.11F                  
BROOKSVILLE    FAIR      86  74  67 VRB3      30.11F                  
CLEARWATER AIR FAIR      86  70  58 SE5       30.11R                  
ST PETE CLEARW FAIR      85  72  65 VRB5      30.10S                  
TAMPA INTL     PTSUNNY   87  71  58 S6        30.11S                  
TAMPA EXEC     FAIR      86  72  62 CALM      30.11S HAZE             
PLANT CITY     FAIR     N/A N/A N/A MISG      30.13S                  
MACDILL AFB    FAIR      85  73  66 S6        30.11R                  
PETER O KNIGHT PTSUNNY   86  75  70 S5        30.11S HX  95           
ST PETERSBURG  FAIR      85  74  69 SE3       30.09S                  
SARASOTA       FAIR      87  75  67 SE7       30.09S HX  96           
VENICE         FAIR      88  77  70 S9        30.11S HX 100           

STATION/POSITION SKY/WX   TEMP    WIND        PRES    WAVE   SWELL
                          AIR SEA DIR/SP/G            HT/PER HT/PER
                          (F)     (DEG/KT/KT) (MB)    (FT/S) (FT/S)
27.3N   84.2W                 86                N/A     2/ 4
CLEARWATER BEACH           86 88   90/  3/  5 1019.6F
MIDDLE TAMPA BAY           84     160/  6/  8 1019.6S
VENICE                     83 86  170/ 10/ 11 1019.4S

$$
FLZ066-069-070-075>078-162-262-165-265-181600-
SOUTHWEST FLORIDA AND KEYS
  
CITY           SKY/WX    TMP DP  RH WIND       PRES   REMARKS
PUNTA GORDA    FAIR      86  74  67 SE5       30.13S                  
FT MYERS       FAIR      87  74  64 E6        30.10F HX  95           
SOUTHWEST INTL FAIR      87  75  67 CALM      30.10F HX  96           
MARCO ISLAND   PTSUNNY   88  78  72 MISG      30.10F HX 101           
IMMOKALEE      FAIR      90  77  66 CALM      30.08F HX 102           
MARATHON       FAIR      90  75  61 SE7       30.08S HX 100           
KEY WEST NAS   FAIR      91  74  57 SE14      30.08S HX 100           
KEY WEST INTL  FAIR      86  76  71 SE13      30.09R HX  96           

STATION/POSITION SKY/WX   TEMP    WIND        PRES    WAVE   SWELL
                          AIR SEA DIR/SP/G            HT/PER HT/PER
                          (F)     (DEG/KT/KT) (MB)    (FT/S) (FT/S)
NAPLES                     88 87              1019.3F
26.0N   85.6W              85 85   90/  8/ 10 1019.5R   2/ 5   2/ 5
DRY TORTUGAS               85     150/  9/ 10 1019.0R
SAND KEY                   85     150/ 12/ 15 1017.8
SOMBRERO KEY               85     130/ 11/ 12 1019.0
LONG KEY                   86                 1018.0

$$
FLZ067-068-071>074-168-172>174-181600-
SOUTHEAST FLORIDA 
  
CITY           SKY/WX    TMP DP  RH WIND       PRES   REMARKS
W PALM BEACH   PTSUNNY   87  74  64 VRB7      30.11R THUNDER HX  95   
BOCA RATON     MOSUNNY   90  77  66 S12       30.10F HX 102           
FT LAUDER-EXEC PTSUNNY   88  71  57 SE13      30.10R                  
FT LAUDERDALE  PTSUNNY   88  73  61 SE14      30.09S HX  95           
POMPANO BEACH  CLOUDY    88  74  63 S10       30.10R HX  96           
PEMBROKE PINES FAIR      90  72  55 S10G17    30.10F HX  97           
OPA LOCKA      PTSUNNY   89  73  59 SE12      30.10S HX  97           
MIAMI          PTSUNNY   91  72  53 SE10      30.09F HX  98           
WEST KENDALL   FAIR      88  74  63 SE10      30.09S HX  96           
HOMESTEAD      FAIR      89  74  61 SE9       30.08S HX  97           

STATION/POSITION SKY/WX   TEMP    WIND        PRES    WAVE   SWELL
                          AIR SEA DIR/SP/G            HT/PER HT/PER
                          (F)     (DEG/KT/KT) (MB)    (FT/S) (FT/S)
PORT EVERGLADES            87     150/  7/ 10 1019.4
VIRGINIA KEY               86 88  150/  8/ 10 1018.5F
LAKE WORTH                 83 85  120/  5/  6 1020.5S
FOWEY ROCKS